Content
SEND FEEDBACK

Daily
Averages
Monthly
Summary
United States of America

BURLINGTON, NORTH CAROLINA


Home > North America > United States > North Carolina
Elevation: 638 feet     Latitude: 36 02N     Longitude: 079 28W

WEATHER
 
SELECT A DAY
Number of Records: 171,781;   Date Range: 7/1/98 - 9/16/14
 
SHARE

PRINT THIS DATA

[ ← Previous Day ]
WEATHER ALMANAC - JULY 22, 2014
[ Next Day → ]
[ °C ]   °F
Weather ElementAverageHighLow
Temperature74.9 °F82.9 °F (3:34 pm)69.1 °F (3:17 am)
Dewpoint69 °F72 °F (1:16 pm)66.9 °F (3:12 am)
Humidity82.7 %94 % (12:50 am)63 % (6:54 pm)
Barometer30.14 in30.19 in (8:47 am)30.08 in (6:54 pm)
Wind Speed2.4 mph6.9 mph (7:54 am)
Weather ElementAverage
Visibility7.2 mi
Wind DirectionNE (39.8 °)

Weather ElementTotal
Precipitation0.09 in
Cooling Degree Days11 (Base 65)
Growing Degree Days26 (Base 50)
Averaged from 44 records on July 22, 2014
WEATHER CONDITIONS BREAKOUT
WIND DIRECTION BREAKOUT
WEATHER BY HOUR - JULY 22, 2014
[ °C ]   °F
Local TimeTemperatureDewpointHumidityBarometerVisibilityWind DirectionWind SpeedGust SpeedPrecipitationEventsConditions
12:50 AM71.6 °F69.8 °F94 %30.17 in5.0 miCalm0.01 inMostly Cloudy
12:54 AM72.0 °F70.0 °F93 %30.16 in5.0 miCalm0.01 inMostly Cloudy
1:43 AM72.0 °F69.1 °F91 %30.16 in6.0 miEast (100°)3.5 mphOvercast
1:54 AM72.0 °F69.1 °F91 %30.14 in7.0 miCalmMostly Cloudy
2:01 AM72.0 °F69.1 °F91 %30.16 in7.0 miCalmScattered Clouds
2:54 AM71.1 °F68.0 °F90 %30.13 in9.0 miCalmMostly Cloudy
3:07 AM70.0 °F68.0 °F93 %30.14 in4.0 miCalmScattered Clouds
3:12 AM70.0 °F66.9 °F90 %30.14 in1.5 miCalmPartly Cloudy
3:17 AM69.1 °F66.9 °F93 %30.14 in0.8 miCalmMist
3:29 AM69.1 °F66.9 °F93 %30.14 in1.0 miCalmMostly Cloudy
3:35 AM69.1 °F66.9 °F93 %30.14 in3.0 miCalmMostly Cloudy
3:54 AM69.1 °F66.9 °F93 %30.12 in5.0 miNorth (350°)3.5 mphMostly Cloudy
4:07 AM69.1 °F66.9 °F93 %30.14 in5.0 miNNE (20°)3.5 mphMostly Cloudy
4:28 AM70.0 °F68.0 °F93 %30.14 in5.0 miNNE (30°)3.5 mphScattered Clouds
4:35 AM70.0 °F68.0 °F93 %30.14 in4.0 miNE (40°)3.5 mphMostly Cloudy
4:54 AM70.0 °F68.0 °F93 %30.13 in4.0 miENE (60°)3.5 mphMostly Cloudy
5:18 AM70.0 °F68.0 °F93 %30.15 in4.0 miCalmOvercast
5:27 AM71.1 °F68.0 °F90 %30.15 in5.0 miNNE (30°)3.5 mphOvercast
5:54 AM71.1 °F68.0 °F90 %30.13 in4.0 miNNE (30°)3.5 mph0.00 inOvercast
6:54 AM71.1 °F69.1 °F93 %30.15 in4.0 miCalmOvercast
7:54 AM72.0 °F69.1 °F91 %30.17 in4.0 miNE (50°)6.9 mphOvercast
8:47 AM73.0 °F70.0 °F90 %30.19 in9.0 miNE (50°)3.5 mphOvercast
8:54 AM75.0 °F70.0 °F84 %30.17 in10.0 miNE (50°)3.5 mphOvercast
9:19 AM77.0 °F70.0 °F79 %30.19 in10.0 miEast (80°)5.8 mphOvercast
9:54 AM77.0 °F69.1 °F76 %30.17 in10.0 miENE (60°)4.6 mphMostly Cloudy
10:34 AM78.1 °F69.1 °F74 %30.19 in10.0 miCalmOvercast
10:54 AM78.1 °F69.1 °F74 %30.17 in10.0 miCalmOvercast
11:42 AM79.0 °F70.0 °F74 %30.18 in10.0 miSE (130°)3.5 mphOvercast
11:49 AM78.8 °F69.8 °F74 %30.18 in10.0 miCalmOvercast
11:54 AM79.0 °F69.1 °F72 %30.16 in10.0 miVariable3.5 mphOvercast
12:43 PM80.1 °F69.1 °F69 %30.17 in10.0 miCalmOvercast
1:16 PM78.1 °F72.0 °F81 %30.16 in10.0 miNNE (30°)6.9 mph0.00 inRainLight Rain
1:54 PM82.0 °F71.1 °F69 %30.13 in10.0 miNorth (10°)5.8 mph0.01 inOvercast
2:54 PM82.0 °F71.1 °F69 %30.12 in10.0 miESE (120°)3.5 mph0.01 inOvercast
3:34 PM82.9 °F70.0 °F65 %30.12 in10.0 miENE (60°)6.9 mph0.01 inMostly Cloudy
3:50 PM82.4 °F69.8 °F66 %30.12 in10.0 miEast (90°)6.9 mph0.01 inOvercast
3:54 PM81.0 °F69.1 °F67 %30.10 in10.0 miENE (60°)4.6 mph0.01 inOvercast
4:54 PM80.1 °F71.1 °F74 %30.10 in5.0 miEast (100°)4.6 mph0.00 inRainLight Rain
5:54 PM82.9 °F70.0 °F65 %30.09 in10.0 miNNE (30°)4.6 mph0.02 inOvercast
6:54 PM82.9 °F69.1 °F63 %30.08 in10.0 miSouth (170°)3.5 mphMostly Cloudy
7:54 PM81.0 °F69.1 °F67 %30.08 in10.0 miCalmClear
8:54 PM78.1 °F70.0 °F76 %30.09 in10.0 miCalmScattered Clouds
10:54 PM73.9 °F70.0 °F87 %30.10 in10.0 miCalmClear
11:54 PM72.0 °F69.1 °F91 %30.10 in9.0 miCalmClear
Hourly data recorded from KBUY, located miles away from Burlington, North Carolina







STORIES FROM OUR PARTNERS